CW9119 Weather Reports


Display with metric or nautical units.
time (UTC)temp
F
wind
direction
speed
MPH
gust
MPH
rain 1hr
in
rain 24hr
in
rain mn
in
humidity
%
barometer
mb
20260505123109 72 49 2.0 8.0 0.00 0.00 0.00 49 1005.6
20260505122109 74 276 1.0 6.0 0.00 0.00 0.00 45 1005.9
20260505120114 74 261 1.0 6.0 0.00 0.00 0.00 47 1005.9
20260505115114 73 256 3.0 8.0 0.00 0.00 0.00 44 1005.7
20260505114114 74 309 0.0 1.0 0.00 0.00 0.00 44 1005.8
20260505113114 74 279 1.0 6.0 0.00 0.00 0.00 43 1005.8
20260505112114 73 297 1.0 6.0 0.00 0.00 0.00 47 1005.9
20260505111113 72 301 0.0 0.0 0.00 0.00 0.00 46 1006.0
20260505102113 72 193 0.0 4.0 0.00 0.00 0.00 46 1006.7
20260505095113 71 96 2.0 6.0 0.00 0.00 0.00 45 1006.8
20260505093113 69 87 0.0 1.0 0.00 0.00 0.00 44 1006.8
20260505091113 69 88 0.0 2.0 0.00 0.00 0.00 48 1007.3
20260505090112 68 88 0.0 2.0 0.00 0.00 0.00 47 1007.2
20260505085112 68 88 1.0 5.0 0.00 0.00 0.00 47 1007.3
20260505084112 67 68 2.0 7.0 0.00 0.00 0.00 49 1007.3
20260505083112 67 148 2.0 8.0 0.00 0.00 0.00 48 1007.4
20260505081112 66 134 1.0 10.0 0.00 0.00 0.00 50 1007.6
20260505074112 64 155 1.0 7.0 0.00 0.00 0.00 53 1007.9
20260505073112 63 80 0.0 5.0 0.00 0.00 0.00 54 1007.9
20260505072112 62 71 1.0 6.0 0.00 0.00 0.00 57 1007.9
20260505071112 60 70 1.0 5.0 0.00 0.00 0.00 63 1008.0
20260505070112 59 58 0.0 1.0 0.00 0.00 0.00 67 1008.1
20260505064112 57 58 0.0 0.0 0.00 0.00 0.00 80 1007.9
20260505063111 56 58 0.0 0.0 0.00 0.00 0.00 80 1008.2
20260505061111 55 57 0.0 6.0 0.00 0.00 0.00 80 1008.2
20260505060111 55 58 0.0 0.0 0.00 0.00 0.00 81 1008.3
20260505054111 54 58 0.0 0.0 0.00 0.00 0.00 82 1008.0
20260505053111 54 57 0.0 0.0 0.00 0.00 0.00 83 1007.9
20260505052111 54 57 0.0 1.0 0.00 0.00 0.00 84 1007.9
20260505050111 53 57 0.0 0.0 0.00 0.00 0.00 84 1007.9
20260505041111 53 57 0.0 0.0 0.00 0.00 0.00 82 1008.0
20260505040111 53 57 0.0 0.0 0.00 0.00 0.00 82 1008.0
20260505030110 52 57 0.0 0.0 0.00 0.00 0.00 84 1008.6
20260505024110 52 57 0.0 0.0 0.00 0.00 0.00 85 1009.0
20260505023110 52 57 0.0 0.0 0.00 0.00 0.00 85 1009.0
20260505022110 52 57 0.0 0.0 0.00 0.00 0.00 85 1009.3
20260505021110 52 56 0.0 0.0 0.00 0.00 0.00 85 1009.3
20260505020110 52 57 0.0 5.0 0.00 0.00 0.00 84 1009.3
20260505015106 52 157 5.0 7.0 0.00 0.00 0.00 82 1009.9
20260505013106 52 178 0.0 0.0 0.00 0.00 0.00 80 1010.3
20260505011106 52 178 0.0 0.0 0.00 0.00 0.00 80 1010.6
20260505010109 52 180 0.0 0.0 0.00 0.00 0.00 81 1010.8
20260505005109 52 180 0.0 1.0 0.00 0.00 0.00 81 1010.7
20260505002109 52 185 0.0 0.0 0.00 0.00 0.00 81 1010.5
20260505000109 52 185 0.0 0.0 0.00 0.00 0.00 80 1010.3
20260504234109 51 185 0.0 0.0 0.00 0.00 0.00 80 1010.5
20260504233109 51 185 0.0 0.0 0.00 0.00 0.00 79 1010.5
20260504232109 51 185 0.0 0.0 0.00 0.00 0.00 79 1010.5
20260504230109 52 185 0.0 0.0 0.00 0.00 0.00 78 1010.5
20260504224109 52 185 0.0 0.0 0.00 0.00 0.00 77 1010.9
20260504223109 52 185 0.0 0.0 0.00 0.00 0.00 77 1010.9
20260504221109 53 185 0.0 0.0 0.00 0.00 0.00 76 1010.9
20260504220109 53 185 0.0 0.0 0.00 0.00 0.00 76 1011.1
20260504215108 53 185 0.0 1.0 0.00 0.00 0.00 76 1010.9
20260504214108 53 185 0.0 0.0 0.00 0.00 0.00 74 1011.0
20260504213108 54 185 0.0 0.0 0.00 0.00 0.00 74 1011.2
20260504212108 54 185 0.0 0.0 0.00 0.00 0.00 73 1011.4
20260504210108 55 185 0.0 0.0 0.00 0.00 0.00 72 1011.4
20260504204108 56 185 0.0 0.0 0.00 0.00 0.00 71 1011.6
20260504203108 56 185 0.0 0.0 0.00 0.00 0.00 70 1011.5
20260504202108 57 185 0.0 0.0 0.00 0.00 0.00 69 1011.6
20260504200108 57 185 0.0 0.0 0.00 0.00 0.00 68 1011.5
20260504195108 58 185 0.0 0.0 0.00 0.00 0.00 66 1011.4
20260504193108 59 185 0.0 0.0 0.00 0.00 0.00 64 1011.5
20260504191108 60 185 0.0 0.0 0.00 0.00 0.00 61 1011.2
20260504184107 62 185 0.0 0.0 0.00 0.00 0.00 60 1011.0
20260504182107 64 185 0.0 0.0 0.00 0.00 0.00 59 1011.1
20260504180107 65 185 0.0 0.0 0.00 0.00 0.00 56 1011.0
20260504175107 65 185 0.0 0.0 0.00 0.00 0.00 52 1010.9
20260504172107 67 185 0.0 0.0 0.00 0.00 0.00 49 1010.9
20260504171107 68 185 0.0 0.0 0.00 0.00 0.00 48 1010.9
20260504170107 69 185 0.0 0.0 0.00 0.00 0.00 47 1010.8